,,,PA_Meas_PMT16A,,PR_Meas_QMR101_102,,RH_Meas_QMH101,,SR_Meas_QMS101,,TA_Meas_QMH101,,GenWind,,GenWind,
date,time,status,PA,status,PR,status,RH,status,SR,status,TA,status,DirAvg,status,SpdAvg,
2009-04-11, 00:00:05,VALID,1004.02,VALID,0,VALID,82.9793,VALID,0,VALID,26.118,VALID,210,VALID,0.903906,
2009-04-11, 00:01:05,VALID,1004,VALID,0,VALID,83.4828,VALID,0,VALID,26.0381,VALID,210,VALID,0.750391,
2009-04-11, 00:02:05,VALID,1003.97,VALID,0,VALID,83.9024,VALID,0,VALID,25.9622,VALID,216,VALID,0.504297,
2009-04-11, 00:03:05,VALID,1003.95,VALID,0,VALID,84.4517,VALID,0,VALID,25.8648,VALID,216,VALID,0,
2009-04-11, 00:04:05,VALID,1003.96,VALID,0,VALID,84.8789,VALID,0,VALID,25.748,VALID,216,VALID,0.414844,
2009-04-11, 00:05:05,VALID,1003.94,VALID,0,VALID,85.3138,VALID,0,VALID,25.672,VALID,216,VALID,0.241797,
2009-04-11, 00:06:05,VALID,1003.95,VALID,0,VALID,85.68,VALID,0,VALID,25.5727,VALID,216,VALID,0.311328,
2009-04-11, 00:07:05,VALID,1003.94,VALID,0,VALID,86.0461,VALID,0,VALID,25.4734,VALID,216,VALID,0.000390625,
2009-04-11, 00:08:05,VALID,1003.95,VALID,0,VALID,86.4886,VALID,0,VALID,25.4363,VALID,216,VALID,0.182812,
2009-04-11, 00:09:05,VALID,1003.94,VALID,0,VALID,86.7175,VALID,0,VALID,25.3974,VALID,216,VALID,0.292188,
2009-04-11, 00:10:05,VALID,1003.93,VALID,0,VALID,86.9769,VALID,0,VALID,25.3195,VALID,216,VALID,0.231641,
2009-04-11, 00:11:05,VALID,1003.93,VALID,0,VALID,87.2286,VALID,0,VALID,25.2611,VALID,216,VALID,0.216406,
2009-04-11, 00:12:05,VALID,1003.94,VALID,0,VALID,87.4727,VALID,0,VALID,25.2416,VALID,216,VALID,0.3375,
2009-04-11, 00:13:05,VALID,1003.93,VALID,0,VALID,87.549,VALID,0,VALID,25.2221,VALID,227,VALID,0.266406,
2009-04-11, 00:14:05,VALID,1003.93,VALID,0,VALID,87.8389,VALID,0,VALID,25.1832,VALID,227,VALID,0.386328,
2009-04-11, 00:15:05,VALID,1003.9,VALID,0,VALID,88.1288,VALID,0,VALID,25.1053,VALID,227,VALID,0.354297,
2009-04-11, 00:16:05,VALID,1003.9,VALID,0,VALID,88.4416,VALID,0,VALID,25.0469,VALID,227,VALID,0.134766,
2009-04-11, 00:17:05,VALID,1003.89,VALID,0,VALID,88.8078,VALID,0,VALID,25.0079,VALID,227,VALID,0.0410156,
2009-04-11, 00:18:05,VALID,1003.88,VALID,0,VALID,88.9222,VALID,0,VALID,24.9866,VALID,227,VALID,0.363672,
2009-04-11, 00:19:05,VALID,1003.87,VALID,0,VALID,89.1358,VALID,0,VALID,24.969,VALID,227,VALID,0.0195313,
2009-04-11, 00:20:05,VALID,1003.87,VALID,0,VALID,89.3494,VALID,0,VALID,24.9514,VALID,227,VALID,0.003125,
2009-04-11, 00:21:05,VALID,1003.88,VALID,0,VALID,89.4791,VALID,0,VALID,24.8911,VALID,227,VALID,0.208203,
2009-04-11, 00:22:05,VALID,1003.84,VALID,0,VALID,89.6622,VALID,0,VALID,24.8522,VALID,227,VALID,0.312891,
2009-04-11, 00:23:05,VALID,1003.84,VALID,0,VALID,89.7767,VALID,0,VALID,24.7919,VALID,227,VALID,0.311328,
2009-04-11, 00:24:05,VALID,1003.82,VALID,0,VALID,90.0132,VALID,0,VALID,24.7335,VALID,228,VALID,0.351563,
2009-04-11, 00:25:05,VALID,1003.82,VALID,0,VALID,90.1734,VALID,0,VALID,24.7335,VALID,228,VALID,0.561719,
2009-04-11, 00:26:05,VALID,1003.77,VALID,0,VALID,90.2268,VALID,0,VALID,24.6769,VALID,48,VALID,0.301172,
2009-04-11, 00:27:05,VALID,1003.79,VALID,0,VALID,90.5167,VALID,0,VALID,24.6361,VALID,48,VALID,0.185547,
2009-04-11, 00:28:05,VALID,1003.76,VALID,0,VALID,90.5777,VALID,0,VALID,24.6166,VALID,32,VALID,0.631641,
2009-04-11, 00:29:05,VALID,1003.78,VALID,0,VALID,90.776,VALID,0,VALID,24.6185,VALID,32,VALID,0.0566406,
2009-04-11, 00:30:05,VALID,1003.75,VALID,0,VALID,90.8752,VALID,0,VALID,24.6185,VALID,32,VALID,0.312109,
2009-04-11, 00:31:05,VALID,1003.74,VALID,0,VALID,90.9668,VALID,0,VALID,24.5796,VALID,32,VALID,0,
2009-04-11, 00:32:05,VALID,1003.76,VALID,0,VALID,91.0431,VALID,0,VALID,24.5601,VALID,32,VALID,0.192188,
2009-04-11, 00:33:05,VALID,1003.75,VALID,0,VALID,91.1575,VALID,0,VALID,24.5212,VALID,32,VALID,0.108984,
2009-04-11, 00:34:05,VALID,1003.73,VALID,0,VALID,91.2872,VALID,0,VALID,24.5212,VALID,32,VALID,0.200391,
2009-04-11, 00:35:05,VALID,1003.72,VALID,0,VALID,91.3711,VALID,0,VALID,24.4822,VALID,32,VALID,0.115625,
2009-04-11, 00:36:05,VALID,1003.73,VALID,0,VALID,91.4932,VALID,0,VALID,24.4628,VALID,32,VALID,0,
2009-04-11, 00:37:05,VALID,1003.7,VALID,0,VALID,91.6457,VALID,0,VALID,24.4433,VALID,32,VALID,0.288281,
2009-04-11, 00:38:05,VALID,1003.7,VALID,0,VALID,91.7068,VALID,0,VALID,24.4025,VALID,32,VALID,0,
2009-04-11, 00:39:05,VALID,1003.7,VALID,0,VALID,91.8288,VALID,0,VALID,24.4043,VALID,32,VALID,0,
2009-04-11, 00:40:05,VALID,1003.69,VALID,0,VALID,91.8975,VALID,0,VALID,24.4043,VALID,32,VALID,0.465234,
2009-04-11, 00:41:05,VALID,1003.66,VALID,0,VALID,91.9967,VALID,0,VALID,24.3441,VALID,32,VALID,0.147656,
2009-04-11, 00:42:05,VALID,1003.67,VALID,0,VALID,92.0882,VALID,0,VALID,24.3654,VALID,32,VALID,0,
2009-04-11, 00:43:05,VALID,1003.65,VALID,0,VALID,92.1035,VALID,0,VALID,24.3441,VALID,32,VALID,0,
2009-04-11, 00:44:05,VALID,1003.65,VALID,0,VALID,92.1569,VALID,0,VALID,24.3052,VALID,32,VALID,0,
2009-04-11, 00:45:05,VALID,1003.65,VALID,0,VALID,92.2103,VALID,0,VALID,24.3052,VALID,32,VALID,0,
2009-04-11, 00:46:05,VALID,1003.62,VALID,0,VALID,92.2866,VALID,0,VALID,24.2857,VALID,32,VALID,0,
2009-04-11, 00:47:05,VALID,1003.61,VALID,0,VALID,92.3934,VALID,0,VALID,24.2857,VALID,32,VALID,0,
2009-04-11, 00:48:05,VALID,1003.58,VALID,0,VALID,92.4315,VALID,0.100563,VALID,24.2857,VALID,32,VALID,0,
2009-04-11, 00:49:05,VALID,1003.55,VALID,0,VALID,92.4086,VALID,0,VALID,24.2468,VALID,32,VALID,0,
2009-04-11, 00:50:05,VALID,1003.56,VALID,0,VALID,92.4697,VALID,0,VALID,24.2468,VALID,32,VALID,0,
2009-04-11, 00:51:05,VALID,1003.56,VALID,0,VALID,92.5231,VALID,0,VALID,24.2273,VALID,32,VALID,0,
2009-04-11, 00:52:05,VALID,1003.58,VALID,0,VALID,92.5688,VALID,0,VALID,24.2273,VALID,32,VALID,0,
2009-04-11, 00:53:05,VALID,1003.58,VALID,0,VALID,92.6299,VALID,0,VALID,24.2291,VALID,32,VALID,0,
2009-04-11, 00:54:05,VALID,1003.58,VALID,0,VALID,92.7138,VALID,0,VALID,24.2291,VALID,32,VALID,0,
2009-04-11, 00:55:05,VALID,1003.59,VALID,0,VALID,92.7519,VALID,0,VALID,24.2291,VALID,32,VALID,0,
2009-04-11, 00:56:05,VALID,1003.59,VALID,0,VALID,92.813,VALID,0,VALID,24.1884,VALID,32,VALID,0,
2009-04-11, 00:57:05,VALID,1003.56,VALID,0,VALID,92.8969,VALID,0,VALID,24.2078,VALID,32,VALID,0,
2009-04-11, 00:58:05,VALID,1003.55,VALID,0,VALID,92.8892,VALID,0,VALID,24.1884,VALID,32,VALID,0,
2009-04-11, 00:59:05,VALID,1003.51,VALID,0,VALID,92.8587,VALID,0,VALID,24.1884,VALID,32,VALID,0,
2009-04-11, 01:00:05,VALID,1003.49,VALID,0,VALID,92.8816,VALID,0,VALID,24.1689,VALID,32,VALID,0,
2009-04-11, 01:01:05,VALID,1003.45,VALID,0,VALID,92.8664,VALID,0,VALID,24.1494,VALID,32,VALID,0,
2009-04-11, 01:02:05,VALID,1003.43,VALID,0,VALID,92.9045,VALID,0,VALID,24.13,VALID,32,VALID,0,
2009-04-11, 01:03:05,VALID,1003.42,VALID,0,VALID,92.9274,VALID,0,VALID,24.1318,VALID,32,VALID,0,
2009-04-11, 01:04:05,VALID,1003.41,VALID,0,VALID,92.9426,VALID,0,VALID,24.0716,VALID,32,VALID,0,
2009-04-11, 01:05:05,VALID,1003.41,VALID,0,VALID,92.9884,VALID,0,VALID,24.0716,VALID,32,VALID,0,
2009-04-11, 01:06:05,VALID,1003.38,VALID,0,VALID,93.0418,VALID,0,VALID,24.0734,VALID,32,VALID,0,
2009-04-11, 01:07:05,VALID,1003.37,VALID,0,VALID,93.0952,VALID,0,VALID,24.0326,VALID,32,VALID,0,
2009-04-11, 01:08:05,VALID,1003.37,VALID,0,VALID,93.1486,VALID,0,VALID,24.0326,VALID,32,VALID,0,
2009-04-11, 01:09:05,VALID,1003.38,VALID,0,VALID,93.202,VALID,0.100563,VALID,24.0326,VALID,32,VALID,0,
2009-04-11, 01:10:05,VALID,1003.35,VALID,0,VALID,93.2783,VALID,0,VALID,24.0132,VALID,32,VALID,0,
2009-04-11, 01:11:05,VALID,1003.38,VALID,0,VALID,93.3394,VALID,0,VALID,24.0132,VALID,32,VALID,0,
2009-04-11, 01:12:05,VALID,1003.35,VALID,0,VALID,93.3775,VALID,0.100563,VALID,24.0326,VALID,32,VALID,0,
2009-04-11, 01:13:05,VALID,1003.41,VALID,0,VALID,93.4004,VALID,0,VALID,23.9919,VALID,32,VALID,0,
2009-04-11, 01:14:05,VALID,1003.38,VALID,0,VALID,93.4156,VALID,0,VALID,24.015,VALID,32,VALID,0,
2009-04-11, 01:15:05,VALID,1003.38,VALID,0,VALID,93.4233,VALID,0,VALID,23.9937,VALID,60,VALID,0.407422,
2009-04-11, 01:16:05,VALID,1003.36,VALID,0,VALID,93.5148,VALID,0.100563,VALID,23.9937,VALID,60,VALID,0.298047,
2009-04-11, 01:17:05,VALID,1003.33,VALID,0,VALID,93.5301,VALID,0,VALID,23.9937,VALID,60,VALID,0.509766,
2009-04-11, 01:18:05,VALID,1003.33,VALID,0,VALID,93.5224,VALID,0,VALID,23.9742,VALID,60,VALID,0.394141,
2009-04-11, 01:19:05,VALID,1003.31,VALID,0,VALID,93.5682,VALID,0,VALID,23.9742,VALID,66,VALID,0.333984,
2009-04-11, 01:20:05,VALID,1003.32,VALID,0,VALID,93.6064,VALID,0,VALID,23.9937,VALID,78,VALID,0.478906,
2009-04-11, 01:21:05,VALID,1003.28,VALID,0,VALID,93.6292,VALID,0.100563,VALID,23.9955,VALID,78,VALID,0.513281,
2009-04-11, 01:22:05,VALID,1003.24,VALID,0,VALID,93.6369,VALID,0.100563,VALID,23.9937,VALID,75,VALID,0.393359,
2009-04-11, 01:23:05,VALID,1003.25,VALID,0,VALID,93.6445,VALID,0,VALID,23.9937,VALID,71,VALID,0.399609,
2009-04-11, 01:24:05,VALID,1003.24,VALID,0,VALID,93.614,VALID,0,VALID,23.9955,VALID,71,VALID,0,
2009-04-11, 01:25:05,VALID,1003.2,VALID,0,VALID,93.6674,VALID,0,VALID,23.9742,VALID,71,VALID,0,
2009-04-11, 01:26:05,VALID,1003.19,VALID,0,VALID,93.7284,VALID,0.100563,VALID,23.9937,VALID,58,VALID,0.548437,
2009-04-11, 01:27:05,VALID,1003.18,VALID,0,VALID,93.6826,VALID,0.100563,VALID,23.9937,VALID,51,VALID,0.476172,
2009-04-11, 01:28:05,VALID,1003.16,VALID,0,VALID,93.7055,VALID,0,VALID,23.9937,VALID,51,VALID,0.453125,
2009-04-11, 01:29:05,VALID,1003.16,VALID,0,VALID,93.6826,VALID,0.100563,VALID,23.9937,VALID,51,VALID,0.423438,
2009-04-11, 01:30:05,VALID,1003.14,VALID,0,VALID,93.6598,VALID,0.100563,VALID,23.9548,VALID,51,VALID,0.448828,
2009-04-11, 01:31:05,VALID,1003.1,VALID,0,VALID,93.7132,VALID,0.100563,VALID,23.9548,VALID,49,VALID,0.31875,
2009-04-11, 01:32:05,VALID,1003.04,VALID,0,VALID,93.7895,VALID,0.100563,VALID,23.9742,VALID,49,VALID,0.349609,
2009-04-11, 01:33:05,VALID,1003.01,VALID,0,VALID,93.8276,VALID,0,VALID,23.9742,VALID,49,VALID,0.297266,
2009-04-11, 01:34:05,VALID,1002.98,VALID,0,VALID,93.8123,VALID,0.100563,VALID,23.9742,VALID,49,VALID,0.437891,
2009-04-11, 01:35:05,VALID,1002.93,VALID,0,VALID,93.881,VALID,0.100563,VALID,23.9937,VALID,13,VALID,0.507422,
2009-04-11, 01:36:05,VALID,1002.92,VALID,0,VALID,93.8581,VALID,0.100563,VALID,23.9937,VALID,8,VALID,0.542578,
2009-04-11, 01:37:05,VALID,1002.87,VALID,0,VALID,93.8963,VALID,0,VALID,24.015,VALID,8,VALID,0.41875,
2009-04-11, 01:38:05,VALID,1002.89,VALID,0,VALID,93.9115,VALID,0.100563,VALID,24.0345,VALID,7,VALID,0.451562,
2009-04-11, 01:39:05,VALID,1002.88,VALID,0,VALID,93.942,VALID,0,VALID,24.0132,VALID,7,VALID,0.301172,
2009-04-11, 01:40:05,VALID,1002.86,VALID,0,VALID,93.942,VALID,0.100563,VALID,24.0132,VALID,7,VALID,0.235156,
2009-04-11, 01:41:05,VALID,1002.86,VALID,0,VALID,94.0031,VALID,0.100563,VALID,24.0539,VALID,7,VALID,0,
2009-04-11, 01:42:05,VALID,1002.88,VALID,0,VALID,94.0107,VALID,0.100563,VALID,24.0326,VALID,6,VALID,0.38125,
2009-04-11, 01:43:05,VALID,1002.87,VALID,0,VALID,93.9649,VALID,0,VALID,24.0326,VALID,6,VALID,0.388672,
2009-04-11, 01:44:05,VALID,1002.84,VALID,0,VALID,94.0031,VALID,0.100563,VALID,24.0326,VALID,5,VALID,0.361328,
2009-04-11, 01:45:05,VALID,1002.83,VALID,0,VALID,94.0565,VALID,0.100563,VALID,24.0716,VALID,5,VALID,0.4,
2009-04-11, 01:46:05,VALID,1002.83,VALID,0,VALID,94.0336,VALID,0.100563,VALID,24.0929,VALID,5,VALID,0.456641,
2009-04-11, 01:47:05,VALID,1002.8,VALID,0,VALID,93.9573,VALID,0.100563,VALID,24.0734,VALID,5,VALID,0.497656,
2009-04-11, 01:48:05,VALID,1002.78,VALID,0,VALID,93.9344,VALID,0,VALID,24.0539,VALID,5,VALID,0.545313,
2009-04-11, 01:49:05,VALID,1002.76,VALID,0,VALID,93.9344,VALID,0,VALID,24.0539,VALID,3,VALID,0.637109,
2009-04-11, 01:50:05,VALID,1002.74,VALID,0,VALID,93.9802,VALID,0.100563,VALID,24.0326,VALID,344,VALID,0.704297,
2009-04-11, 01:51:05,VALID,1002.73,VALID,0,VALID,94.0336,VALID,0.100563,VALID,24.0326,VALID,347,VALID,0.666016,
2009-04-11, 01:52:05,VALID,1002.75,VALID,0,VALID,94.0336,VALID,0.100563,VALID,24.0308,VALID,349,VALID,0.674219,
2009-04-11, 01:53:05,VALID,1002.76,VALID,0,VALID,94.0336,VALID,0.100563,VALID,24.0326,VALID,349,VALID,0.583203,
2009-04-11, 01:54:05,VALID,1002.72,VALID,0,VALID,94.0488,VALID,0.100563,VALID,24.0326,VALID,348,VALID,0.405859,
2009-04-11, 01:55:05,VALID,1002.73,VALID,0,VALID,94.087,VALID,0.100563,VALID,24.0539,VALID,348,VALID,0.402344,
2009-04-11, 01:56:05,VALID,1002.78,VALID,0,VALID,94.1251,VALID,0.100563,VALID,24.0521,VALID,345,VALID,0.274609,
2009-04-11, 01:57:05,VALID,1002.77,VALID,0,VALID,94.1099,VALID,0,VALID,24.0716,VALID,345,VALID,0,
2009-04-11, 01:58:05,VALID,1002.8,VALID,0,VALID,94.1175,VALID,0,VALID,24.0716,VALID,345,VALID,0,
2009-04-11, 01:59:05,VALID,1002.79,VALID,0,VALID,94.1328,VALID,0.100563,VALID,24.0929,VALID,345,VALID,0,
2009-04-11, 02:00:05,VALID,1002.81,VALID,0,VALID,94.1175,VALID,0.100563,VALID,24.0716,VALID,345,VALID,0,
2009-04-11, 02:01:05,VALID,1002.81,VALID,0,VALID,94.087,VALID,0,VALID,24.0734,VALID,345,VALID,0.208594,
2009-04-11, 02:02:05,VALID,1002.83,VALID,0,VALID,94.1022,VALID,0.100563,VALID,24.0521,VALID,345,VALID,0.1125,
2009-04-11, 02:03:05,VALID,1002.86,VALID,0,VALID,94.0946,VALID,0.100563,VALID,24.0734,VALID,345,VALID,0.385156,
2009-04-11, 02:04:05,VALID,1002.84,VALID,0,VALID,94.1099,VALID,0,VALID,24.0521,VALID,345,VALID,0.142578,
2009-04-11, 02:05:05,VALID,1002.84,VALID,0,VALID,94.1404,VALID,0,VALID,24.0521,VALID,345,VALID,0.255469,
2009-04-11, 02:06:05,VALID,1002.83,VALID,0,VALID,94.0946,VALID,0,VALID,24.0326,VALID,351,VALID,0.445313,
2009-04-11, 02:07:05,VALID,1002.84,VALID,0,VALID,94.0488,VALID,0.100563,VALID,23.9937,VALID,351,VALID,0.390625,
2009-04-11, 02:08:05,VALID,1002.83,VALID,0,VALID,94.0336,VALID,0,VALID,23.9742,VALID,351,VALID,0.255078,
2009-04-11, 02:09:05,VALID,1002.78,VALID,0,VALID,94.0412,VALID,0,VALID,23.9548,VALID,351,VALID,0.339453,
2009-04-11, 02:10:04,VALID,1002.78,VALID,0,VALID,93.9954,VALID,0,VALID,23.9371,VALID,351,VALID,0.147656,
2009-04-11, 02:11:04,VALID,1002.74,VALID,0,VALID,94.0259,VALID,0.100563,VALID,23.8964,VALID,351,VALID,0,
2009-04-11, 02:12:04,VALID,1002.73,VALID,0,VALID,94.1099,VALID,0,VALID,23.8964,VALID,351,VALID,0,
2009-04-11, 02:13:04,VALID,1002.74,VALID,0,VALID,94.1633,VALID,0,VALID,23.8964,VALID,351,VALID,0,
2009-04-11, 02:14:04,VALID,1002.76,VALID,0,VALID,94.1709,VALID,0.100563,VALID,23.9177,VALID,351,VALID,0,
2009-04-11, 02:15:04,VALID,1002.75,VALID,0,VALID,94.1862,VALID,0.100563,VALID,23.9371,VALID,351,VALID,0,
2009-04-11, 02:16:04,VALID,1002.74,VALID,0,VALID,94.1709,VALID,0,VALID,23.8964,VALID,351,VALID,0,
2009-04-11, 02:17:04,VALID,1002.72,VALID,0,VALID,94.2167,VALID,0,VALID,23.9371,VALID,351,VALID,0,
2009-04-11, 02:18:04,VALID,1002.73,VALID,0,VALID,94.2396,VALID,0,VALID,23.9566,VALID,351,VALID,0,
2009-04-11, 02:19:04,VALID,1002.7,VALID,0,VALID,94.3006,VALID,0,VALID,23.9761,VALID,351,VALID,0,
2009-04-11, 02:20:04,VALID,1002.69,VALID,0,VALID,94.2853,VALID,0,VALID,23.9955,VALID,351,VALID,0,
2009-04-11, 02:21:04,VALID,1002.67,VALID,0,VALID,94.2853,VALID,0,VALID,23.9955,VALID,351,VALID,0,
2009-04-11, 02:22:04,VALID,1002.65,VALID,0,VALID,94.2701,VALID,0,VALID,24.015,VALID,351,VALID,0,
2009-04-11, 02:23:04,VALID,1002.62,VALID,0,VALID,94.1862,VALID,0,VALID,23.9955,VALID,351,VALID,0,
2009-04-11, 02:24:04,VALID,1002.62,VALID,0,VALID,94.1785,VALID,0.100563,VALID,23.9955,VALID,351,VALID,0,
2009-04-11, 02:25:04,VALID,1002.6,VALID,0,VALID,94.293,VALID,0.100563,VALID,23.9742,VALID,351,VALID,0,
2009-04-11, 02:26:04,VALID,1002.6,VALID,0,VALID,94.2167,VALID,0,VALID,23.9937,VALID,351,VALID,0.211328,
2009-04-11, 02:27:04,VALID,1002.58,VALID,0,VALID,94.2548,VALID,0,VALID,23.9937,VALID,351,VALID,0.184766,
2009-04-11, 02:28:04,VALID,1002.6,VALID,0,VALID,94.209,VALID,0,VALID,23.9742,VALID,351,VALID,0.405078,
2009-04-11, 02:29:04,VALID,1002.58,VALID,0,VALID,94.2472,VALID,0,VALID,23.9937,VALID,347,VALID,0.0140625,
2009-04-11, 02:30:04,VALID,1002.58,VALID,0,VALID,94.2701,VALID,0,VALID,23.9937,VALID,347,VALID,0.189063,
2009-04-11, 02:31:04,VALID,1002.58,VALID,0,VALID,94.148,VALID,0,VALID,23.9761,VALID,347,VALID,0.154687,
2009-04-11, 02:32:04,VALID,1002.54,VALID,0,VALID,94.1785,VALID,0,VALID,23.9548,VALID,347,VALID,0.00195313,
2009-04-11, 02:33:04,VALID,1002.54,VALID,0,VALID,94.1862,VALID,0,VALID,23.9761,VALID,347,VALID,0.0105469,
2009-04-11, 02:34:04,VALID,1002.53,VALID,0,VALID,94.1785,VALID,0,VALID,23.9353,VALID,347,VALID,0.0890625,
2009-04-11, 02:35:04,VALID,1002.57,VALID,0,VALID,94.1556,VALID,0,VALID,23.9353,VALID,347,VALID,0.153125,
2009-04-11, 02:36:04,VALID,1002.54,VALID,0,VALID,94.1175,VALID,0,VALID,23.8964,VALID,347,VALID,0,
2009-04-11, 02:37:04,VALID,1002.55,VALID,0,VALID,94.148,VALID,0,VALID,23.9177,VALID,347,VALID,0.0046875,
2009-04-11, 02:38:04,VALID,1002.52,VALID,0,VALID,94.209,VALID,0,VALID,23.8964,VALID,347,VALID,0,
2009-04-11, 02:39:04,VALID,1002.54,VALID,0,VALID,94.2167,VALID,0,VALID,23.9159,VALID,347,VALID,0.153906,
2009-04-11, 02:40:04,VALID,1002.56,VALID,0,VALID,94.2014,VALID,0,VALID,23.9159,VALID,347,VALID,0.176563,
2009-04-11, 02:41:04,VALID,1002.54,VALID,0,VALID,94.1709,VALID,0,VALID,23.8769,VALID,347,VALID,0.132422,
2009-04-11, 02:42:04,VALID,1002.55,VALID,0,VALID,94.1709,VALID,0,VALID,23.8769,VALID,347,VALID,0,
2009-04-11, 02:43:04,VALID,1002.55,VALID,0,VALID,94.1556,VALID,0,VALID,23.8575,VALID,347,VALID,0,
2009-04-11, 02:44:04,VALID,1002.55,VALID,0,VALID,94.1175,VALID,0,VALID,23.7973,VALID,347,VALID,0,
2009-04-11, 02:45:04,VALID,1002.55,VALID,0,VALID,94.1251,VALID,0,VALID,23.8203,VALID,347,VALID,0,
2009-04-11, 02:46:04,VALID,1002.52,VALID,0,VALID,94.1328,VALID,0,VALID,23.7991,VALID,347,VALID,0,
2009-04-11, 02:47:04,VALID,1002.52,VALID,0,VALID,94.1862,VALID,0,VALID,23.7991,VALID,347,VALID,0,
2009-04-11, 02:48:04,VALID,1002.48,VALID,0,VALID,94.1633,VALID,0,VALID,23.8009,VALID,347,VALID,0,
2009-04-11, 02:49:04,VALID,1002.46,VALID,0,VALID,94.2243,VALID,0,VALID,23.8009,VALID,349,VALID,0,
2009-04-11, 02:50:04,VALID,1002.46,VALID,0,VALID,94.56,VALID,0,VALID,24.0132,VALID,42,VALID,0.489453,
2009-04-11, 02:51:04,VALID,1002.44,VALID,0,VALID,94.6057,VALID,0,VALID,24.0326,VALID,42,VALID,0.291016,
2009-04-11, 02:52:04,VALID,1002.42,VALID,0,VALID,94.6973,VALID,0,VALID,24.1513,VALID,37,VALID,0.630078,
2009-04-11, 02:53:04,VALID,1002.38,VALID,0,VALID,94.7278,VALID,0,VALID,24.3265,VALID,41,VALID,0.6125,
2009-04-11, 02:54:04,VALID,1002.4,VALID,0,VALID,94.7278,VALID,0,VALID,24.3636,VALID,43,VALID,0.432422,
2009-04-11, 02:55:04,VALID,1002.38,VALID,0,VALID,94.7202,VALID,0.100563,VALID,24.422,VALID,46,VALID,0.544141,
2009-04-11, 02:56:04,VALID,1002.39,VALID,0,VALID,94.6591,VALID,0,VALID,24.4628,VALID,46,VALID,0.360156,
2009-04-11, 02:57:04,VALID,1002.39,VALID,0,VALID,94.5752,VALID,0,VALID,24.5212,VALID,68,VALID,0.551953,
2009-04-11, 02:58:04,VALID,1002.39,VALID,0,VALID,94.4913,VALID,0,VALID,24.5193,VALID,42,VALID,0.234766,
2009-04-11, 02:59:04,VALID,1002.39,VALID,0,VALID,94.4074,VALID,0,VALID,24.5174,VALID,38,VALID,0.280859,
2009-04-11, 03:00:04,VALID,1002.41,VALID,0,VALID,94.4303,VALID,0,VALID,24.6185,VALID,70,VALID,0.5875,
2009-04-11, 03:01:04,VALID,1002.4,VALID,0,VALID,94.3692,VALID,0,VALID,24.6574,VALID,84,VALID,0.419531,
2009-04-11, 03:02:04,VALID,1002.37,VALID,0,VALID,94.293,VALID,0,VALID,24.6574,VALID,78,VALID,0.339453,
2009-04-11, 03:03:04,VALID,1002.39,VALID,0,VALID,94.2319,VALID,0,VALID,24.6556,VALID,75,VALID,0.401953,
2009-04-11, 03:04:04,VALID,1002.39,VALID,0,VALID,94.2472,VALID,0,VALID,24.7353,VALID,69,VALID,0.425781,
2009-04-11, 03:05:04,VALID,1002.38,VALID,0,VALID,94.1709,VALID,0,VALID,24.7335,VALID,70,VALID,0.285156,
2009-04-11, 03:06:04,VALID,1002.41,VALID,0,VALID,94.1709,VALID,0,VALID,24.7919,VALID,61,VALID,0.41875,
2009-04-11, 03:07:04,VALID,1002.42,VALID,0,VALID,94.0565,VALID,0,VALID,24.8308,VALID,81,VALID,0.677344,
2009-04-11, 03:08:04,VALID,1002.44,VALID,0,VALID,93.8963,VALID,0,VALID,24.8308,VALID,80,VALID,0.696094,
2009-04-11, 03:09:04,VALID,1002.42,VALID,0,VALID,93.7513,VALID,0,VALID,24.8113,VALID,77,VALID,0.656641,
2009-04-11, 03:10:04,VALID,1002.4,VALID,0,VALID,93.6292,VALID,0,VALID,24.8113,VALID,91,VALID,0.661328,
2009-04-11, 03:11:04,VALID,1002.44,VALID,0,VALID,93.5072,VALID,0,VALID,24.7937,VALID,89,VALID,0.671094,
2009-04-11, 03:12:04,VALID,1002.47,VALID,0,VALID,93.4004,VALID,0,VALID,24.7743,VALID,89,VALID,0.412891,
2009-04-11, 03:13:04,VALID,1002.46,VALID,0,VALID,93.3241,VALID,0,VALID,24.7335,VALID,96,VALID,0.59375,
2009-04-11, 03:14:04,VALID,1002.5,VALID,0,VALID,93.3394,VALID,0.100563,VALID,24.7335,VALID,103,VALID,0.629687,
2009-04-11, 03:15:04,VALID,1002.46,VALID,0,VALID,93.4385,VALID,0,VALID,24.7529,VALID,96,VALID,0.689453,
2009-04-11, 03:16:04,VALID,1002.47,VALID,0,VALID,93.3546,VALID,0,VALID,24.7724,VALID,97,VALID,0.349219,
2009-04-11, 03:17:04,VALID,1002.47,VALID,0,VALID,93.2936,VALID,0,VALID,24.7529,VALID,75,VALID,0.726953,
2009-04-11, 03:18:04,VALID,1002.44,VALID,0,VALID,93.2173,VALID,0,VALID,24.7548,VALID,73,VALID,0.244531,
2009-04-11, 03:19:04,VALID,1002.42,VALID,0,VALID,93.0723,VALID,0,VALID,24.675,VALID,72,VALID,0.272266,
2009-04-11, 03:20:04,VALID,1002.36,VALID,0,VALID,93.0266,VALID,0,VALID,24.6769,VALID,58,VALID,0.450781,
2009-04-11, 03:21:04,VALID,1002.32,VALID,0,VALID,93.0571,VALID,0,VALID,24.6574,VALID,46,VALID,0.571484,
2009-04-11, 03:22:04,VALID,1002.3,VALID,0,VALID,93.0723,VALID,0,VALID,24.6185,VALID,46,VALID,0.170312,
2009-04-11, 03:23:04,VALID,1002.32,VALID,0,VALID,93.0723,VALID,0,VALID,24.5972,VALID,46,VALID,0,
2009-04-11, 03:24:04,VALID,1002.33,VALID,0,VALID,93.0647,VALID,0,VALID,24.5796,VALID,46,VALID,0,
2009-04-11, 03:25:04,VALID,1002.33,VALID,0,VALID,93.1029,VALID,0,VALID,24.5601,VALID,49,VALID,0.0121094,
2009-04-11, 03:26:04,VALID,1002.32,VALID,0,VALID,93.1334,VALID,0,VALID,24.5406,VALID,49,VALID,0,
2009-04-11, 03:27:04,VALID,1002.32,VALID,0,VALID,93.1563,VALID,0,VALID,24.5212,VALID,49,VALID,0,
2009-04-11, 03:28:04,VALID,1002.31,VALID,0,VALID,93.1563,VALID,0.100563,VALID,24.4822,VALID,49,VALID,0,
2009-04-11, 03:29:04,VALID,1002.28,VALID,0,VALID,93.1944,VALID,0,VALID,24.422,VALID,49,VALID,0,
2009-04-11, 03:30:04,VALID,1002.29,VALID,0,VALID,93.2173,VALID,0,VALID,24.4238,VALID,49,VALID,0,
2009-04-11, 03:31:04,VALID,1002.3,VALID,0,VALID,93.2478,VALID,0,VALID,24.4043,VALID,49,VALID,0,
2009-04-11, 03:32:04,VALID,1002.33,VALID,0,VALID,93.2631,VALID,0,VALID,24.3636,VALID,49,VALID,0,
2009-04-11, 03:33:04,VALID,1002.36,VALID,0,VALID,93.3088,VALID,0,VALID,24.3459,VALID,49,VALID,0,
2009-04-11, 03:34:04,VALID,1002.35,VALID,0,VALID,93.3394,VALID,0,VALID,24.3441,VALID,49,VALID,0,
2009-04-11, 03:35:04,VALID,1002.33,VALID,0,VALID,93.3851,VALID,0,VALID,24.3052,VALID,49,VALID,0,
2009-04-11, 03:36:04,VALID,1002.31,VALID,0,VALID,93.4538,VALID,0,VALID,24.3265,VALID,49,VALID,0,
2009-04-11, 03:37:04,VALID,1002.33,VALID,0,VALID,93.5072,VALID,0,VALID,24.3052,VALID,49,VALID,0,
2009-04-11, 03:38:04,VALID,1002.32,VALID,0,VALID,93.5224,VALID,0,VALID,24.307,VALID,49,VALID,0,
2009-04-11, 03:39:04,VALID,1002.3,VALID,0,VALID,93.553,VALID,0,VALID,24.307,VALID,49,VALID,0,
2009-04-11, 03:40:04,VALID,1002.31,VALID,0,VALID,93.6369,VALID,0,VALID,24.2857,VALID,49,VALID,0,
2009-04-11, 03:41:04,VALID,1002.32,VALID,0,VALID,93.6674,VALID,0,VALID,24.3265,VALID,49,VALID,0,
2009-04-11, 03:42:04,VALID,1002.35,VALID,0,VALID,93.6979,VALID,0,VALID,24.3052,VALID,49,VALID,0,
2009-04-11, 03:43:04,VALID,1002.35,VALID,0,VALID,93.7361,VALID,0,VALID,24.3052,VALID,49,VALID,0,
2009-04-11, 03:44:04,VALID,1002.38,VALID,0,VALID,93.7361,VALID,0,VALID,24.3052,VALID,49,VALID,0,
2009-04-11, 03:45:04,VALID,1002.36,VALID,0,VALID,93.7589,VALID,0,VALID,24.3459,VALID,49,VALID,0,
2009-04-11, 03:46:04,VALID,1002.38,VALID,0,VALID,93.6903,VALID,0,VALID,24.3459,VALID,49,VALID,0,
2009-04-11, 03:47:04,VALID,1002.37,VALID,0,VALID,93.6369,VALID,0,VALID,24.3052,VALID,47,VALID,0,
2009-04-11, 03:48:04,VALID,1002.41,VALID,0,VALID,93.5911,VALID,0,VALID,24.2875,VALID,46,VALID,0,
2009-04-11, 03:49:04,VALID,1002.38,VALID,0,VALID,93.5911,VALID,0,VALID,24.2468,VALID,46,VALID,0,